This is the latest recevied weather packets stored in our database for station/object K8RRT. If no packets are shown the sender has not sent any weather packets the latest 10 day(s).
| Time | Temp. | Humidity | Pressure | Rain* | Wind** | Luminosity | Snow |
|---|---|---|---|---|---|---|---|
| 1777222199 | 15° C | 78% | 1013.8 hPa | 0 mm | - | 285 W/m² | - |
| 1777221897 | 15° C | 78% | 1013.8 hPa | 0 mm | - | 295 W/m² | - |
| 1777221591 | 15° C | 77% | 1013.6 hPa | 0 mm | - | 304 W/m² | - |
| 1777221289 | 15° C | 78% | 1013.7 hPa | 0 mm | - | 357 W/m² | - |
| 1777220985 | 14.44° C | 79% | 1013.7 hPa | 0 mm | - | 362 W/m² | - |
| 1777220680 | 15° C | 79% | 1013.8 hPa | 0 mm | - | 390 W/m² | - |
| 1777220378 | 14.44° C | 80% | 1014 hPa | 0 mm | - | 354 W/m² | - |
| 1777220077 | 14.44° C | 80% | 1014 hPa | 0 mm | - | 398 W/m² | - |
| 1777219774 | 13.89° C | 82% | 1013.8 hPa | 0 mm | - | 393 W/m² | - |
| 1777219472 | 13.89° C | 82% | 1014 hPa | 0 mm | - | 315 W/m² | - |
| 1777219167 | 13.89° C | 82% | 1014.1 hPa | 0 mm | - | 301 W/m² | - |
| 1777218863 | 13.89° C | 81% | 1013.8 hPa | 0 mm | - | 284 W/m² | - |
| 1777218560 | 13.89° C | 82% | 1013.9 hPa | 0 mm | - | 289 W/m² | - |
| 1777218254 | 13.89° C | 83% | 1014 hPa | 0 mm | - | 269 W/m² | - |
| 1777217952 | 13.89° C | 82% | 1013.7 hPa | 0 mm | - | 285 W/m² | - |
| 1777217646 | 13.33° C | 84% | 1013.8 hPa | 0 mm | - | 288 W/m² | - |
| 1777217343 | 13.33° C | 84% | 1013.8 hPa | 0 mm | - | 266 W/m² | - |
| 1777217039 | 12.78° C | 84% | 1014.2 hPa | 0 mm | - | 241 W/m² | - |
| 1777216736 | 12.78° C | 85% | 1014.1 hPa | 0 mm | - | 215 W/m² | - |
| 1777216431 | 12.78° C | 85% | 1013.9 hPa | 0 mm | - | 180 W/m² | - |
| 1777216130 | 12.78° C | 85% | 1014 hPa | 0 mm | - | 163 W/m² | - |
| 1777215825 | 12.78° C | 85% | 1014 hPa | 0 mm | - | 163 W/m² | - |
| 1777215522 | 12.78° C | 85% | 1013.9 hPa | 0 mm | - | 168 W/m² | - |
| 1777215218 | 12.78° C | 85% | 1013.7 hPa | 0 mm | - | 173 W/m² | - |
| 1777214914 | 12.78° C | 86% | 1013.7 hPa | 0 mm | - | 202 W/m² | - |
* Rain latest hour (hover to see other rain measurements)
** Current wind speed in m/s (hover to see current wind gust speed)